Weather History for Marathon, FL

Change the Weather History Date:

Monday, April 1, 2013

  Actual Average Record
Temperature  
Mean Temperature 81 °F 76 °F  
Max Temperature 87 °F 82 °F 87 °F (1998)
Min Temperature 74 °F 70 °F 57 °F (2003)
Degree Days  
Heating Degree Days 0 0  
Month to date heating degree days 0 0  
Since 1 July heating degree days 36 81  
Cooling Degree Days 16 11  
Month to date cooling degree days 16 11  
Year to date cooling degree days 804 676  
Growing Degree Days 30 (Base 50)    
Moisture  
Dew Point 69 °F    
Average Humidity 69    
Maximum Humidity 82    
Minimum Humidity 55    
Precipitation  
Precipitation 0.00 in 0.08 in 0.89 in (2001)
Month to date precipitation 0.00 0.08  
Year to date precipitation 3.77 6.29  
Snow  
Snow 0.00 in - - ()
Month to date snowfall 0.0  
Since 1 July snowfall 0.0  
Snow Depth 0.00 in    
Sea Level Pressure  
Sea Level Pressure 30.03 in    
Wind  
Wind Speed 4 mph (South)    
Max Wind Speed 13 mph    
Max Gust Speed 20 mph    
Visibility 9 miles    
Events      
T = Trace of Precipitation, MM = Missing Value Source: NWS Daily Summary

Daily Weather History Graph

Daily Weather History Graph

Search for Another Location

Airport:

Trip Planner

Search our weather history database for the weather conditions in past years. The results will help you decide how hot, cold, wet, or windy it might be!

Date:

Astronomy

Apr. 01, 2013 Rise Set
Actual Time 7:15 AM EDT 7:40 PM EDT
Civil Twilight 6:52 AM EDT 8:03 PM EDT
Nautical Twilight 6:25 AM EDT 8:30 PM EDT
Astronomical Twilight 5:58 AM EDT 8:57 PM EDT
Moon 12:20 AM EDT (4/1) 11:27 AM EDT (4/1)
Length of Visible Light 13h 10m
Length of Day
12h 24m
Waning Gibbous, 67% of the Moon is Illuminated
Apr 1
Waning Gibbous
Apr 3
Last Quarter
Apr 10
New
Apr 18
First Quarter
Apr 25
Full

Hourly Weather History & Observations

Time (EDT) Temp. Heat Index Dew Point Humidity Pressure Visibility Wind Dir Wind Speed Gust Speed Precip Events Conditions
12:53 AM 77.0 °F - 68.0 °F 74% 30.04 in 10.0 mi SE 6.9 mph - N/A   Clear
1:53 AM 75.9 °F - 68.0 °F 76% 30.03 in 9.0 mi SE 5.8 mph - N/A   Clear
2:53 AM 75.9 °F - 66.9 °F 74% 30.02 in 10.0 mi SSE 11.5 mph 19.6 mph N/A   Partly Cloudy
3:53 AM 75.0 °F - 66.0 °F 73% 30.00 in 10.0 mi SSE 5.8 mph - N/A   Clear
5:53 AM 75.0 °F - 66.9 °F 76% 30.01 in 10.0 mi SSE 4.6 mph - N/A   Clear
6:53 AM 75.0 °F - 66.9 °F 76% 30.02 in 10.0 mi Calm Calm - N/A   Clear
7:53 AM 75.0 °F - 68.0 °F 79% 30.04 in 10.0 mi SSE 3.5 mph - N/A   Clear
8:53 AM 78.1 °F - 68.0 °F 71% 30.05 in 10.0 mi Variable 3.5 mph - N/A   Clear
9:53 AM 80.1 °F 82.9 °F 69.1 °F 69% 30.06 in 10.0 mi SSE 5.8 mph - N/A   Clear
10:53 AM 82.9 °F 87.0 °F 70.0 °F 65% 30.07 in 10.0 mi SSE 4.6 mph - N/A   Clear
11:53 AM 82.0 °F 85.9 °F 70.0 °F 67% 30.07 in 10.0 mi SSE 6.9 mph - N/A   Partly Cloudy
12:53 PM 84.9 °F 89.4 °F 70.0 °F 61% 30.07 in 10.0 mi South 5.8 mph - N/A   Clear
1:53 PM 84.9 °F 89.4 °F 70.0 °F 61% 30.05 in 10.0 mi SSW 3.5 mph - N/A   Partly Cloudy
2:53 PM 86.0 °F 90.7 °F 70.0 °F 59% 30.03 in 10.0 mi SSW 5.8 mph - N/A   Clear
3:53 PM 84.9 °F 88.8 °F 69.1 °F 59% 29.99 in 10.0 mi Variable 5.8 mph - N/A   Clear
4:53 PM 84.0 °F 86.5 °F 66.9 °F 56% 29.99 in 8.0 mi WSW 6.9 mph - N/A   Clear
5:53 PM 82.0 °F 85.5 °F 69.1 °F 65% 30.00 in 8.0 mi WNW 3.5 mph - N/A   Clear
6:53 PM 79.0 °F - 69.1 °F 72% 30.01 in 7.0 mi NNW 5.8 mph - N/A   Clear
7:53 PM 77.0 °F - 69.1 °F 76% 30.03 in 6.0 mi NNW 3.5 mph - N/A   Haze
8:53 PM 75.9 °F - 69.1 °F 79% 30.03 in 7.0 mi NW 3.5 mph - N/A   Clear
9:53 PM 75.0 °F - 69.1 °F 82% 30.04 in 6.0 mi Calm Calm - N/A   Haze
10:53 PM 75.0 °F - 69.1 °F 82% 30.05 in 8.0 mi NNW 3.5 mph - N/A   Clear
11:53 PM 75.0 °F - 68.0 °F 79% 30.06 in 9.0 mi Calm Calm - N/A   Clear